Simultaneous Nadir Overpasses (SNOs) Predictions

Prediction of SNOs between GOES-15 and LANDSAT-8 Satellite Orbit:

Table of predicted SNOs for the next 14.0 days since TLE Epoch: 2/4/2023
Index Date Time (GOES-15) GOES-15 Lat,Lon LANDSAT-8 Lat,Lon Distance(km) Time Diff (sec)
1 02/05/2023 06:46:15 0.03,-128.30 -0.06,-128.75 51.06 80
2 02/07/2023 06:36:43 0.02,-128.29 0.57,-125.79 284.63 80
3 02/07/2023 18:55:18 -0.03,-128.24 0.56,-130.94 307.21 80
4 02/09/2023 18:45:46 -0.03,-128.23 -0.09,-127.99 28.27 80
5 02/11/2023 18:33:33 -0.03,-128.22 -0.69,-125.02 363.22 80
6 02/12/2023 06:52:17 0.03,-128.26 -0.40,-130.22 222.53 80
7 02/14/2023 06:42:44 0.04,-128.24 0.22,-127.25 111.44 80
8 02/14/2023 19:01:19 -0.04,-128.19 0.84,-132.42 480.96 80
9 02/16/2023 06:30:31 0.04,-128.21 0.85,-124.30 444.46 80
10 02/16/2023 18:49:07 -0.05,-128.15 0.20,-129.46 148.14 80
